Time,TemperatureF,DewpointF,PressureIn,WindDirection,WindDirectionDegrees,WindSpeedMPH,WindSpeedGustMPH,Humidity,HourlyPrecipIn,Conditions,Clouds,dailyrainin,SolarRadiationWatts/m^2,SoftwareType,DateUTC
2013-06-18 00:01:00,58.0,22.0,-100.00,SSW,197,6.0,26.0,25,0.00,,,0.00,4.000000,,2013-06-18 08:01:00,
2013-06-18 00:11:00,58.0,22.0,-100.00,SSW,197,6.0,26.0,25,0.00,,,0.00,4.000000,,2013-06-18 08:11:00,
2013-06-18 00:23:00,58.0,22.0,-100.00,SSW,197,6.0,26.0,25,0.00,,,0.00,4.000000,,2013-06-18 08:23:00,
2013-06-18 00:32:00,58.0,22.0,-100.00,SSW,197,6.0,26.0,25,0.00,,,0.00,4.000000,,2013-06-18 08:32:00,
2013-06-18 00:33:00,58.0,23.0,-100.00,North,5,7.0,28.0,26,0.00,,,0.00,0.000000,,2013-06-18 08:33:00,
2013-06-18 01:01:00,58.0,23.0,-100.00,North,5,7.0,28.0,26,0.00,,,0.00,0.000000,,2013-06-18 09:01:00,
2013-06-18 01:11:00,58.0,23.0,-100.00,North,5,7.0,28.0,26,0.00,,,0.00,0.000000,,2013-06-18 09:11:00,
2013-06-18 01:22:00,58.0,23.0,-100.00,North,5,7.0,28.0,26,0.00,,,0.00,0.000000,,2013-06-18 09:22:00,
2013-06-18 01:33:00,57.0,25.0,-100.00,NE,38,5.0,11.0,29,0.00,,,0.00,0.000000,,2013-06-18 09:33:00,
2013-06-18 02:01:00,57.0,25.0,-100.00,NE,38,5.0,11.0,29,0.00,,,0.00,0.000000,,2013-06-18 10:01:00,
2013-06-18 02:11:00,57.0,25.0,-100.00,NE,38,5.0,11.0,29,0.00,,,0.00,0.000000,,2013-06-18 10:11:00,
2013-06-18 02:22:00,57.0,25.0,-100.00,NE,38,5.0,11.0,29,0.00,,,0.00,0.000000,,2013-06-18 10:22:00,
2013-06-18 03:02:00,56.0,26.0,-100.00,ENE,59,7.0,14.0,31,0.00,,,0.00,0.000000,,2013-06-18 11:02:00,
2013-06-18 03:11:00,56.0,26.0,-100.00,ENE,59,7.0,14.0,31,0.00,,,0.00,0.000000,,2013-06-18 11:11:00,
2013-06-18 03:22:00,56.0,26.0,-100.00,ENE,59,7.0,14.0,31,0.00,,,0.00,0.000000,,2013-06-18 11:22:00,
2013-06-18 03:32:00,56.0,26.0,-100.00,ENE,59,7.0,14.0,31,0.00,,,0.00,0.000000,,2013-06-18 11:32:00,
2013-06-18 04:01:00,55.0,26.0,-100.00,South,179,4.0,8.0,33,0.00,,,0.00,0.000000,,2013-06-18 12:01:00,
2013-06-18 04:11:00,55.0,26.0,-100.00,South,179,4.0,8.0,33,0.00,,,0.00,0.000000,,2013-06-18 12:11:00,
2013-06-18 04:22:00,55.0,26.0,-100.00,South,179,4.0,8.0,33,0.00,,,0.00,0.000000,,2013-06-18 12:22:00,
2013-06-18 04:32:00,55.0,26.0,-100.00,South,179,4.0,8.0,33,0.00,,,0.00,0.000000,,2013-06-18 12:32:00,
2013-06-18 04:33:00,54.0,26.0,-100.00,WNW,283,2.0,6.0,33,0.00,,,0.00,6.000000,,2013-06-18 12:33:00,
2013-06-18 05:02:00,54.0,26.0,-100.00,WNW,283,2.0,6.0,33,0.00,,,0.00,6.000000,,2013-06-18 13:02:00,
2013-06-18 05:11:00,54.0,26.0,-100.00,WNW,283,2.0,6.0,33,0.00,,,0.00,6.000000,,2013-06-18 13:11:00,
2013-06-18 05:22:00,54.0,26.0,-100.00,WNW,283,2.0,6.0,33,0.00,,,0.00,6.000000,,2013-06-18 13:22:00,
2013-06-18 05:33:00,54.0,26.0,-100.00,NNW,332,6.0,11.0,34,0.00,,,0.00,19.000000,,2013-06-18 13:33:00,
2013-06-18 06:02:00,54.0,26.0,-100.00,NNW,332,6.0,11.0,34,0.00,,,0.00,19.000000,,2013-06-18 14:02:00,
2013-06-18 06:11:00,54.0,26.0,-100.00,NNW,332,6.0,11.0,34,0.00,,,0.00,19.000000,,2013-06-18 14:11:00,
2013-06-18 06:22:00,54.0,26.0,-100.00,NNW,332,6.0,11.0,34,0.00,,,0.00,19.000000,,2013-06-18 14:22:00,
2013-06-18 06:33:00,54.0,26.0,-100.00,ENE,70,5.0,11.0,34,0.00,,,0.00,42.000000,,2013-06-18 14:33:00,
2013-06-18 07:02:00,54.0,26.0,-100.00,ENE,70,5.0,11.0,34,0.00,,,0.00,42.000000,,2013-06-18 15:02:00,
2013-06-18 07:11:00,54.0,26.0,-100.00,ENE,70,5.0,11.0,34,0.00,,,0.00,42.000000,,2013-06-18 15:11:00,
2013-06-18 07:22:00,54.0,26.0,-100.00,ENE,70,5.0,11.0,34,0.00,,,0.00,42.000000,,2013-06-18 15:22:00,
2013-06-18 07:33:00,54.0,28.0,-100.00,SE,125,5.0,11.0,36,0.00,,,0.00,421.000000,,2013-06-18 15:33:00,
2013-06-18 08:01:00,54.0,28.0,-100.00,SE,125,5.0,11.0,36,0.00,,,0.00,421.000000,,2013-06-18 16:01:00,
2013-06-18 08:11:00,54.0,28.0,-100.00,SE,125,5.0,11.0,36,0.00,,,0.00,421.000000,,2013-06-18 16:11:00,
2013-06-18 08:22:00,54.0,28.0,-100.00,SE,125,5.0,11.0,36,0.00,,,0.00,421.000000,,2013-06-18 16:22:00,
2013-06-18 08:33:00,54.0,28.0,-100.00,WSW,252,5.0,20.0,36,0.00,,,0.00,624.000000,,2013-06-18 16:33:00,
2013-06-18 09:02:00,54.0,28.0,-100.00,WSW,252,5.0,20.0,36,0.00,,,0.00,624.000000,,2013-06-18 17:02:00,
2013-06-18 09:11:00,54.0,28.0,-100.00,WSW,252,5.0,20.0,36,0.00,,,0.00,624.000000,,2013-06-18 17:11:00,
2013-06-18 09:22:00,54.0,28.0,-100.00,WSW,252,5.0,20.0,36,0.00,,,0.00,624.000000,,2013-06-18 17:22:00,
2013-06-18 09:33:00,53.0,27.0,-100.00,SW,221,8.0,20.0,37,0.00,,,0.00,581.000000,,2013-06-18 17:33:00,
2013-06-18 09:53:00,53.0,27.0,-100.00,SW,221,8.0,20.0,37,0.00,,,0.00,581.000000,,2013-06-18 17:53:00,
2013-06-18 10:01:00,53.0,27.0,-100.00,SW,221,8.0,20.0,37,0.00,,,0.00,581.000000,,2013-06-18 18:01:00,
2013-06-18 10:11:00,53.0,27.0,-100.00,SW,221,8.0,20.0,37,0.00,,,0.00,581.000000,,2013-06-18 18:11:00,
2013-06-18 10:22:00,53.0,27.0,-100.00,SW,221,8.0,20.0,37,0.00,,,0.00,581.000000,,2013-06-18 18:22:00,
2013-06-18 10:33:00,54.0,26.0,-100.00,SW,220,11.0,30.0,34,0.00,,,0.00,685.000000,,2013-06-18 18:33:00,
2013-06-18 10:53:00,54.0,26.0,-100.00,SW,220,11.0,30.0,34,0.00,,,0.00,685.000000,,2013-06-18 18:53:00,
2013-06-18 11:01:00,54.0,26.0,-100.00,SW,220,11.0,30.0,34,0.00,,,0.00,685.000000,,2013-06-18 19:01:00,
2013-06-18 11:11:00,54.0,26.0,-100.00,SW,220,11.0,30.0,34,0.00,,,0.00,685.000000,,2013-06-18 19:11:00,
2013-06-18 11:22:00,54.0,26.0,-100.00,SW,220,11.0,30.0,34,0.00,,,0.00,685.000000,,2013-06-18 19:22:00,
2013-06-18 11:33:00,55.0,26.0,-100.00,SSE,166,5.0,10.0,33,0.00,,,0.00,765.000000,,2013-06-18 19:33:00,
2013-06-18 12:01:00,55.0,26.0,-100.00,SSE,166,5.0,10.0,33,0.00,,,0.00,765.000000,,2013-06-18 20:01:00,
2013-06-18 12:11:00,55.0,26.0,-100.00,SSE,166,5.0,10.0,33,0.00,,,0.00,765.000000,,2013-06-18 20:11:00,
2013-06-18 12:22:00,55.0,26.0,-100.00,SSE,166,5.0,10.0,33,0.00,,,0.00,765.000000,,2013-06-18 20:22:00,
2013-06-18 12:33:00,56.0,27.0,-100.00,SSW,199,7.0,15.0,32,0.00,,,0.00,796.000000,,2013-06-18 20:33:00,
2013-06-18 13:01:00,56.0,27.0,-100.00,SSW,199,7.0,15.0,32,0.00,,,0.00,796.000000,,2013-06-18 21:01:00,
2013-06-18 13:11:00,56.0,27.0,-100.00,SSW,199,7.0,15.0,32,0.00,,,0.00,796.000000,,2013-06-18 21:11:00,
2013-06-18 13:22:00,56.0,27.0,-100.00,SSW,199,7.0,15.0,32,0.00,,,0.00,796.000000,,2013-06-18 21:22:00,
2013-06-18 13:33:00,57.0,25.0,-100.00,SW,229,11.0,21.0,29,0.00,,,0.00,856.000000,,2013-06-18 21:33:00,
2013-06-18 13:52:00,57.0,25.0,-100.00,SW,229,11.0,21.0,29,0.00,,,0.00,856.000000,,2013-06-18 21:52:00,
2013-06-18 14:01:00,57.0,25.0,-100.00,SW,229,11.0,21.0,29,0.00,,,0.00,856.000000,,2013-06-18 22:01:00,
2013-06-18 14:11:00,57.0,25.0,-100.00,SW,229,11.0,21.0,29,0.00,,,0.00,856.000000,,2013-06-18 22:11:00,
2013-06-18 14:22:00,57.0,25.0,-100.00,SW,229,11.0,21.0,29,0.00,,,0.00,856.000000,,2013-06-18 22:22:00,
2013-06-18 14:33:00,59.0,26.0,-100.00,SW,220,12.0,21.0,28,0.00,,,0.00,801.000000,,2013-06-18 22:33:00,
2013-06-18 15:01:00,59.0,26.0,-100.00,SW,220,12.0,21.0,28,0.00,,,0.00,801.000000,,2013-06-18 23:01:00,
2013-06-18 15:11:00,59.0,26.0,-100.00,SW,220,12.0,21.0,28,0.00,,,0.00,801.000000,,2013-06-18 23:11:00,
2013-06-18 15:23:00,59.0,26.0,-100.00,SW,220,12.0,21.0,28,0.00,,,0.00,801.000000,,2013-06-18 23:23:00,
2013-06-18 15:33:00,59.0,26.0,-100.00,SW,234,14.0,27.0,28,0.00,,,0.00,745.000000,,2013-06-18 23:33:00,
2013-06-18 16:01:00,59.0,26.0,-100.00,SW,234,14.0,27.0,28,0.00,,,0.00,745.000000,,2013-06-19 00:01:00,
2013-06-18 16:11:00,59.0,26.0,-100.00,SW,234,14.0,27.0,28,0.00,,,0.00,745.000000,,2013-06-19 00:11:00,
2013-06-18 16:22:00,59.0,26.0,-100.00,SW,234,14.0,27.0,28,0.00,,,0.00,745.000000,,2013-06-19 00:22:00,
2013-06-18 17:01:00,59.0,25.0,-100.00,SSW,210,14.0,23.0,27,0.00,,,0.00,684.000000,,2013-06-19 01:01:00,
2013-06-18 17:11:00,59.0,25.0,-100.00,SSW,210,14.0,23.0,27,0.00,,,0.00,684.000000,,2013-06-19 01:11:00,
2013-06-18 17:22:00,59.0,25.0,-100.00,SSW,210,14.0,23.0,27,0.00,,,0.00,684.000000,,2013-06-19 01:22:00,
2013-06-18 17:32:00,59.0,25.0,-100.00,SSW,210,14.0,23.0,27,0.00,,,0.00,684.000000,,2013-06-19 01:32:00,
2013-06-18 18:01:00,60.0,27.0,-100.00,SW,222,9.0,20.0,28,0.00,,,0.00,566.000000,,2013-06-19 02:01:00,
2013-06-18 18:11:00,60.0,27.0,-100.00,SW,222,9.0,20.0,28,0.00,,,0.00,566.000000,,2013-06-19 02:11:00,
2013-06-18 18:21:00,60.0,27.0,-100.00,SW,222,9.0,20.0,28,0.00,,,0.00,566.000000,,2013-06-19 02:21:00,
2013-06-18 18:32:00,60.0,27.0,-100.00,SW,222,9.0,20.0,28,0.00,,,0.00,566.000000,,2013-06-19 02:32:00,
2013-06-18 18:52:00,58.0,26.0,-100.00,SSW,207,10.0,22.0,29,0.00,,,0.00,303.000000,,2013-06-19 02:52:00,
2013-06-18 19:01:00,58.0,26.0,-100.00,SSW,207,10.0,22.0,29,0.00,,,0.00,303.000000,,2013-06-19 03:01:00,
2013-06-18 19:11:00,58.0,26.0,-100.00,SSW,207,10.0,22.0,29,0.00,,,0.00,303.000000,,2013-06-19 03:11:00,
2013-06-18 19:21:00,58.0,26.0,-100.00,SSW,207,10.0,22.0,29,0.00,,,0.00,303.000000,,2013-06-19 03:21:00,
2013-06-18 19:32:00,58.0,26.0,-100.00,SSW,207,10.0,22.0,29,0.00,,,0.00,303.000000,,2013-06-19 03:32:00,
2013-06-18 19:52:00,56.0,26.0,-100.00,ENE,72,15.0,31.0,31,0.00,,,0.00,107.000000,,2013-06-19 03:52:00,
2013-06-18 20:01:00,56.0,26.0,-100.00,ENE,72,15.0,31.0,31,0.00,,,0.00,107.000000,,2013-06-19 04:01:00,
2013-06-18 20:11:00,56.0,26.0,-100.00,ENE,72,15.0,31.0,31,0.00,,,0.00,107.000000,,2013-06-19 04:11:00,
2013-06-18 20:22:00,56.0,26.0,-100.00,ENE,72,15.0,31.0,31,0.00,,,0.00,107.000000,,2013-06-19 04:22:00,
2013-06-18 20:32:00,56.0,26.0,-100.00,ENE,72,15.0,31.0,31,0.00,,,0.00,107.000000,,2013-06-19 04:32:00,
2013-06-18 20:53:00,55.0,26.0,-100.00,NE,46,24.0,34.0,33,0.00,,,0.00,208.000000,,2013-06-19 04:53:00,
2013-06-18 21:01:00,55.0,26.0,-100.00,NE,46,24.0,34.0,33,0.00,,,0.00,208.000000,,2013-06-19 05:01:00,
2013-06-18 21:11:00,55.0,26.0,-100.00,NE,46,24.0,34.0,33,0.00,,,0.00,208.000000,,2013-06-19 05:11:00,
2013-06-18 21:22:00,55.0,26.0,-100.00,NE,46,24.0,34.0,33,0.00,,,0.00,208.000000,,2013-06-19 05:22:00,
2013-06-18 21:32:00,55.0,26.0,-100.00,NE,46,24.0,34.0,33,0.00,,,0.00,208.000000,,2013-06-19 05:32:00,
2013-06-18 21:33:00,55.0,27.0,-100.00,ENE,71,12.0,27.0,34,0.00,,,0.00,93.000000,,2013-06-19 05:33:00,
2013-06-18 21:52:00,55.0,27.0,-100.00,ENE,71,12.0,27.0,34,0.00,,,0.00,93.000000,,2013-06-19 05:52:00,
2013-06-18 22:01:00,55.0,27.0,-100.00,ENE,71,12.0,27.0,34,0.00,,,0.00,93.000000,,2013-06-19 06:01:00,
2013-06-18 22:11:00,55.0,27.0,-100.00,ENE,71,12.0,27.0,34,0.00,,,0.00,93.000000,,2013-06-19 06:11:00,
2013-06-18 22:21:00,55.0,27.0,-100.00,ENE,71,12.0,27.0,34,0.00,,,0.00,93.000000,,2013-06-19 06:21:00,
2013-06-18 22:33:00,53.0,28.0,-100.00,ESE,123,5.0,10.0,38,0.00,,,0.00,23.000000,,2013-06-19 06:33:00,
2013-06-18 22:52:00,53.0,28.0,-100.00,ESE,123,5.0,10.0,38,0.00,,,0.00,23.000000,,2013-06-19 06:52:00,
2013-06-18 23:01:00,53.0,28.0,-100.00,ESE,123,5.0,10.0,38,0.00,,,0.00,23.000000,,2013-06-19 07:01:00,
2013-06-18 23:11:00,53.0,28.0,-100.00,ESE,123,5.0,10.0,38,0.00,,,0.00,23.000000,,2013-06-19 07:11:00,
2013-06-18 23:22:00,53.0,28.0,-100.00,ESE,123,5.0,10.0,38,0.00,,,0.00,23.000000,,2013-06-19 07:22:00,
2013-06-18 23:33:00,53.0,28.0,-100.00,East,93,5.0,13.0,38,0.00,,,0.00,4.000000,,2013-06-19 07:33:00,